Location: *
(48.8780°N, 19.2358°E)
Time: 08:19:39
(UTC+00:00)

Cosmos 1328 - Pass Details

Date: 18 October 2019
Orbit: 531 x 553 km, 82.5° (Epoch: 12 November)

Event Time Altitude Azimuth Distance (km) Brightness Sun altitude
Rises 16:20:20 0° 356° (N) 2,718 7.3 -6.0°
Reaches altitude 10° 16:22:38 10° 5° (N) 1,817 6.4 -6.4°
Maximum altitude 16:26:22 38° 74° (ENE) 835 4.3 -7.0°
Drops below altitude 10° 16:30:04 10° 144° (SE) 1,791 6.1 -7.6°
Sets 16:32:18 0° 152° (SSE) 2,673 7.1 -7.9°
